User: anonymous   Login
Location: Unspecified
(48.8656°N, 0.0000°E)
Time: 03:58:09
(UTC+00:00)
Language:

Tiros 1 - Orbit

View from above orbital plane
View from above orbital plane
View from above satellite
View from above satellite

Ground track
Ground track

The orbit data is extracted from the following two-line orbital elements,

1    29U 60002B   19170.45927846 -.00000141  00000-0  10043-4 0  9991
2    29  48.3787 226.3527 0023526 116.2013 244.1321 14.74307844164953
Epoch (UTC): 19 June 2019 11:01:21
Eccentricity: 0.0023526
inclination: 48.3787°
perigee height: 631 km
apogee height: 664 km
right ascension of ascending node: 226.3527°
argument of perigee: 116.2013°
revolutions per day: 14.74307844
mean anomaly at epoch: 244.1321°
orbit number at epoch: 16495

The dashed part of the orbit path shows where the satellite is in the earth's shadow,  

DLR